Flag for Belarus Weather past 2 weeks in Gomel, Belarus

Now
61 °F

Partly cloudy.


Feels Like: 61 °F
Forecast: 54 / 72 °F
Wind: 6 mph from Southeast

Location: Gomel'

Current Time: Apr 26, 2015 at 10:23:56 PM

Latest Report: Apr 26, 2015 at 10:00 PM


Visibility: N/A

Pressure: 29.80 "Hg

Humidity: 68%

Dew point: 50 °F

Location of GomelLocation

Historic Weather in Gomel — Graph

°F

Gomel temperature yesterday

Maximum temperature yesterday: 64 °F (at 4:00 PM)
Minimum temperature yesterday: 45 °F (at 5:00 AM)
Average temperature yesterday: 56 °F

Past Weeks' High & Low Weather Summary

 TemperatureHumidityPressure
High75 °F (Apr 26, 2:00 PM)100% (Apr 20, 7:00 AM)30.21 "Hg (Apr 20, 7:00 AM)
Low32 °F (Apr 19, 6:00 AM)24% (Apr 23, 4:00 PM)29.47 "Hg (Apr 16, 9:00 AM)
Average48 °F61%29.83 "Hg
* Reported Apr 11 8:00 PM — Apr 26 8:30 PM, Gomel, Weather by CustomWeather, © 2015

Note: Actual official high and low records may vary slightly from our data, if they occured in-between our weather recording intervals... More about our weather records

Advertising

Gomel weather history for previous 24 hours

 ConditionsComfort  
Time TempWeatherWind HumidityBarometerVisibility
8:30 PM
Sun, Apr 26
64 °FBroken clouds.3 mph64%29.80 "HgN/A
8:00 PM64 °FBroken clouds.1 mph64%29.80 "HgN/A
7:30 PM68 °FBroken clouds.10 mph60%29.77 "HgN/A
7:00 PM68 °FBroken clouds.8 mph60%29.77 "HgN/A
6:30 PM68 °FBroken clouds.6 mph56%29.77 "HgN/A
6:00 PM68 °FBroken clouds.6 mph56%29.77 "HgN/A
5:30 PM68 °FBroken clouds.1 mph60%29.77 "HgN/A
5:00 PM68 °FBroken clouds.1 mph60%29.77 "HgN/A
4:30 PM68 °FBroken clouds.1 mph49%29.77 "HgN/A
4:00 PM68 °FThunderstorms. Partly sunny.10 mph49%29.80 "Hg5 mi
3:30 PM75 °FThunderstorms. Broken clouds.17 mph31%29.80 "HgN/A
3:00 PM75 °FThunderstorms. Broken clouds.17 mph31%29.80 "HgN/A
2:30 PM75 °FSunny.13 mph34%29.80 "Hg10 mi
2:00 PM75 °FSunny.13 mph34%29.83 "Hg10 mi
1:30 PM72 °FSunny.10 mph36%29.83 "Hg10 mi
1:00 PM72 °FSunny.13 mph36%29.83 "Hg10 mi
12:30 PM72 °FSunny.10 mph38%29.86 "Hg10 mi
12:00 PM72 °FSunny.8 mph38%29.86 "Hg10 mi
11:30 AM68 °FSunny.6 mph43%29.86 "Hg10 mi
11:00 AM68 °FSunny.6 mph43%29.89 "Hg10 mi
10:30 AM64 °FSunny.3 mph52%29.89 "Hg10 mi
10:00 AM64 °FSunny.6 mph52%29.89 "Hg10 mi
9:30 AM57 °FSunny.8 mph63%29.89 "Hg10 mi
9:00 AM57 °FSunny.8 mph63%29.89 "Hg10 mi
8:30 AM52 °FSunny.8 mph67%29.89 "Hg10 mi
8:00 AM52 °FSunny.8 mph67%29.92 "Hg10 mi
7:30 AM46 °FSunny.6 mph71%29.92 "Hg10 mi
7:00 AM46 °FSunny.3 mph71%29.92 "Hg10 mi
6:30 AM45 °FClear.6 mph81%29.92 "Hg10 mi
6:00 AM45 °FClear.6 mph81%29.92 "Hg10 mi
5:00 AM46 °FClear.6 mph71%29.92 "Hg10 mi
4:00 AM48 °FClear.8 mph66%29.92 "Hg10 mi
3:00 AM48 °FClear.8 mph71%29.95 "Hg10 mi
2:00 AM50 °FClear.6 mph62%29.95 "Hg10 mi
1:00 AM52 °FClear.8 mph58%29.95 "Hg10 mi
12:00 AM52 °FClear.8 mph62%29.95 "Hg10 mi
11:30 PM
Sat, Apr 25
54 °FClear.8 mph58%29.95 "Hg10 mi
11:00 PM54 °FClear.8 mph58%29.95 "Hg10 mi
10:00 PM55 °FClear.6 mph55%29.95 "Hg6 mi
Weather by CustomWeather, © 2015

See weather overviewHow to use our weather pages